Dyersburg, TN

10:31 AM CST on February 13, 2016 (GMT -0600)
Dyersburg Municipal

Weather History for KDYR - February, 2015

Change the Weather History Date:

Thursday, February 12, 2015

  Actual Average Record
Temperature  
Mean Temperature 28 °F -  
Max Temperature 35 °F 49 °F 60 °F (2005)
Min Temperature 21 °F 33 °F 19 °F (2014)
Degree Days  
Heating Degree Days 37    
Moisture  
Dew Point 6 °F    
Average Humidity 40    
Maximum Humidity 51    
Minimum Humidity 29    
Precipitation  
Precipitation 0.00 in - - ()
Sea Level Pressure  
Sea Level Pressure 30.41 in    
Wind  
Wind Speed 12 mph (North)    
Max Wind Speed 25 mph    
Max Gust Speed 34 mph    
Visibility 10 miles    
Events      
Averages and records for this station are not official NWS values.
T = Trace of Precipitation, MM = Missing Value Source: NWS Daily Summary

Daily Weather History Graph

Daily Weather History Graph

Search for Another Location

Airport or City:

Trip Planner

Search our weather history database for the weather conditions in past years. The results will help you decide how hot, cold, wet, or windy it might be!

Date:

Astronomy

Feb. 12, 2015 Rise Set
Actual Time 6:48 AM CST 5:35 PM CST
Civil Twilight 6:21 AM CST 6:02 PM CST
Nautical Twilight 5:51 AM CST 6:32 PM CST
Astronomical Twilight 5:22 AM CST 7:02 PM CST
Moon 12:49 AM CST (2/12) 11:33 AM CST (2/12)
Length of Visible Light 11h 40m
Length of Day
10h 47m
Last Quarter, 44% of the Moon is Illuminated
Feb 12
Last Quarter
Feb 18
New
Feb 25
First Quarter
Mar 5
Full
Mar 13
Last Quarter

Hourly Weather History & Observations

Time (CST) Temp. Windchill Dew Point Humidity Pressure Visibility Wind Dir Wind Speed Gust Speed Precip Events Conditions
12:15 AM 35.6 °F 28.0 °F 15.8 °F 44% 30.25 in 10.0 mi North 10.4 mph - N/A   Clear
12:35 AM 33.8 °F 25.8 °F 15.8 °F 48% 30.26 in 10.0 mi North 10.4 mph 16.1 mph N/A   Clear
12:55 AM 33.8 °F 25.8 °F 15.8 °F 48% 30.26 in 10.0 mi North 10.4 mph - N/A   Clear
1:15 AM 33.8 °F 25.3 °F 15.8 °F 48% 30.26 in 10.0 mi North 11.5 mph - N/A   Clear
1:35 AM 32.0 °F 23.6 °F 14.0 °F 48% 30.27 in 10.0 mi North 10.4 mph - N/A   Clear
1:55 AM 32.0 °F 24.8 °F 14.0 °F 48% 30.27 in 10.0 mi North 8.1 mph - N/A   Clear
2:15 AM 30.2 °F 21.9 °F 14.0 °F 51% 30.28 in 10.0 mi North 9.2 mph 17.3 mph N/A   Clear
2:35 AM 30.2 °F 23.4 °F 12.2 °F 47% 30.27 in 10.0 mi NNW 6.9 mph - N/A   Clear
2:55 AM 30.2 °F 22.6 °F 12.2 °F 47% 30.27 in 10.0 mi NNW 8.1 mph - N/A   Clear
3:15 AM 30.2 °F 25.4 °F 12.2 °F 47% 30.28 in 10.0 mi NW 4.6 mph - N/A   Clear
3:35 AM 30.2 °F 24.3 °F 12.2 °F 47% 30.27 in 10.0 mi NW 5.8 mph - N/A   Clear
3:55 AM 30.2 °F 25.4 °F 12.2 °F 47% 30.28 in 10.0 mi NW 4.6 mph - N/A   Clear
4:15 AM 28.4 °F 23.3 °F 12.2 °F 51% 30.28 in 10.0 mi NW 4.6 mph - N/A   Clear
4:35 AM 28.4 °F 23.3 °F 12.2 °F 51% 30.29 in 10.0 mi NW 4.6 mph - N/A   Clear
4:55 AM 28.4 °F 22.2 °F 12.2 °F 51% 30.31 in 10.0 mi NW 5.8 mph - N/A   Clear
5:15 AM 28.4 °F 23.3 °F 12.2 °F 51% 30.32 in 10.0 mi WNW 4.6 mph - N/A   Clear
5:35 AM 28.4 °F 21.2 °F 12.2 °F 51% 30.32 in 10.0 mi WNW 6.9 mph - N/A   Clear
5:55 AM 28.4 °F 21.2 °F 12.2 °F 51% 30.32 in 10.0 mi WNW 6.9 mph - N/A   Clear
6:15 AM 28.4 °F 20.4 °F 12.2 °F 51% 30.33 in 10.0 mi WNW 8.1 mph - N/A   Clear
6:35 AM 28.4 °F 22.2 °F 12.2 °F 51% 30.34 in 10.0 mi NW 5.8 mph - N/A   Clear
6:55 AM 28.4 °F 20.4 °F 10.4 °F 47% 30.34 in 10.0 mi NNW 8.1 mph - N/A   Partly Cloudy
7:15 AM 28.4 °F 17.0 °F 12.2 °F 51% 30.35 in 10.0 mi NNW 15.0 mph 23.0 mph N/A   Mostly Cloudy
7:35 AM 28.4 °F 18.0 °F 12.2 °F 51% 30.36 in 10.0 mi NNW 12.7 mph 19.6 mph N/A   Overcast
7:55 AM 30.2 °F 20.2 °F 10.4 °F 44% 30.37 in 10.0 mi NNW 12.7 mph 20.7 mph N/A   Overcast
8:15 AM 30.2 °F 19.8 °F 12.2 °F 47% 30.38 in 10.0 mi NNW 13.8 mph - N/A   Overcast
8:35 AM 30.2 °F 20.2 °F 10.4 °F 44% 30.39 in 10.0 mi NNW 12.7 mph 21.9 mph N/A   Overcast
8:55 AM 32.0 °F 19.8 °F 10.4 °F 41% 30.40 in 10.0 mi NNW 20.7 mph 27.6 mph N/A   Mostly Cloudy
9:15 AM 32.0 °F 21.6 °F 12.2 °F 44% 30.41 in 10.0 mi NNW 15.0 mph 21.9 mph N/A   Mostly Cloudy
9:35 AM 28.4 °F 15.4 °F 8.6 °F 43% 30.44 in 10.0 mi North 19.6 mph 34.5 mph N/A   Mostly Cloudy
9:55 AM 28.4 °F 15.1 °F 8.6 °F 43% 30.45 in 10.0 mi North 20.7 mph 27.6 mph N/A   Scattered Clouds
10:15 AM 30.2 °F 16.2 °F 8.6 °F 40% 30.46 in 10.0 mi North 25.3 mph 31.1 mph N/A   Partly Cloudy
10:35 AM 28.4 °F 15.8 °F 8.6 °F 43% 30.47 in 10.0 mi North 18.4 mph 27.6 mph N/A   Scattered Clouds
10:55 AM 30.2 °F 16.2 °F 6.8 °F 37% 30.47 in 10.0 mi North 25.3 mph 29.9 mph N/A   Scattered Clouds
11:15 AM 28.4 °F 16.2 °F 5.0 °F 37% 30.48 in 10.0 mi NNW 17.3 mph 31.1 mph N/A   Clear
11:35 AM 28.4 °F 15.8 °F 3.2 °F 34% 30.48 in 10.0 mi North 18.4 mph 28.8 mph N/A   Clear
11:55 AM 30.2 °F 17.1 °F 1.4 °F 29% 30.48 in 10.0 mi North 21.9 mph 26.5 mph N/A   Clear
12:15 PM 30.2 °F 17.1 °F 1.4 °F 29% 30.47 in 10.0 mi NNE 21.9 mph 31.1 mph N/A   Clear
12:35 PM 30.2 °F 17.1 °F 1.4 °F 29% 30.46 in 10.0 mi North 21.9 mph 29.9 mph N/A   Clear
12:55 PM 30.2 °F 17.8 °F 1.4 °F 29% 30.48 in 10.0 mi North 19.6 mph 26.5 mph N/A   Clear
1:15 PM 30.2 °F 17.4 °F 1.4 °F 29% 30.47 in 10.0 mi North 20.7 mph 26.5 mph N/A   Clear
1:35 PM 30.2 °F 18.1 °F 1.4 °F 29% 30.48 in 10.0 mi North 18.4 mph 26.5 mph N/A   Clear
1:55 PM 30.2 °F 17.1 °F 1.4 °F 29% 30.47 in 10.0 mi North 21.9 mph 29.9 mph N/A   Clear
2:15 PM 30.2 °F 18.5 °F 1.4 °F 29% 30.47 in 10.0 mi North 17.3 mph 21.9 mph N/A   Clear
2:35 PM 30.2 °F 18.1 °F 3.2 °F 32% 30.47 in 10.0 mi North 18.4 mph 25.3 mph N/A   Clear
2:55 PM 30.2 °F 18.9 °F 3.2 °F 32% 30.47 in 10.0 mi North 16.1 mph 21.9 mph N/A   Clear
3:15 PM 30.2 °F 18.9 °F 3.2 °F 32% 30.47 in 10.0 mi North 16.1 mph 23.0 mph N/A   Clear
3:35 PM 28.4 °F 17.5 °F 1.4 °F 31% 30.47 in 10.0 mi North 13.8 mph - N/A   Clear
3:55 PM 28.4 °F 18.0 °F 1.4 °F 31% 30.48 in 10.0 mi North 12.7 mph 18.4 mph N/A   Clear
4:15 PM 28.4 °F 18.0 °F 1.4 °F 31% 30.48 in 10.0 mi North 12.7 mph 18.4 mph N/A   Clear
4:35 PM 28.4 °F 16.2 °F 1.4 °F 31% 30.48 in 10.0 mi North 17.3 mph 21.9 mph N/A   Clear
4:55 PM 26.6 °F 15.7 °F 1.4 °F 34% 30.48 in 10.0 mi North 12.7 mph - N/A   Clear
5:15 PM 26.6 °F 16.8 °F 1.4 °F 34% 30.49 in 10.0 mi North 10.4 mph - N/A   Clear
5:35 PM 26.6 °F 14.3 °F 1.4 °F 34% 30.48 in 10.0 mi North 16.1 mph 20.7 mph N/A   Clear
5:55 PM 26.6 °F 16.8 °F 1.4 °F 34% 30.48 in 10.0 mi NNE 10.4 mph 18.4 mph N/A   Clear
6:15 PM 24.8 °F 14.0 °F 1.4 °F 36% 30.49 in 10.0 mi NNE 11.5 mph 19.6 mph N/A   Clear
6:35 PM 24.8 °F 12.9 °F 1.4 °F 36% 30.49 in 10.0 mi NNE 13.8 mph - N/A   Clear
6:55 PM 24.8 °F 13.4 °F 1.4 °F 36% 30.50 in 10.0 mi NNE 12.7 mph - N/A   Clear
7:15 PM 24.8 °F 13.4 °F 1.4 °F 36% 30.50 in 10.0 mi NNE 12.7 mph 17.3 mph N/A   Clear
7:35 PM 24.8 °F 12.9 °F -0.4 °F 34% 30.49 in 10.0 mi NE 13.8 mph - N/A   Clear
7:55 PM 24.8 °F 14.6 °F -0.4 °F 34% 30.49 in 10.0 mi NNE 10.4 mph - N/A   Clear
8:15 PM 23.0 °F 11.7 °F 1.4 °F 39% 30.49 in 10.0 mi NNE 11.5 mph 16.1 mph N/A   Clear
8:35 PM 24.8 °F 14.0 °F 1.4 °F 36% 30.48 in 10.0 mi NNE 11.5 mph - N/A   Clear
8:55 PM 23.0 °F 11.1 °F 1.4 °F 39% 30.49 in 10.0 mi NE 12.7 mph 16.1 mph N/A   Clear
9:15 PM 23.0 °F 12.4 °F 1.4 °F 39% 30.48 in 10.0 mi NE 10.4 mph - N/A   Clear
9:35 PM 21.2 °F 8.3 °F 1.4 °F 42% 30.48 in 10.0 mi NE 13.8 mph - N/A   Clear
9:55 PM 21.2 °F 8.9 °F -0.4 °F 39% 30.48 in 10.0 mi NNE 12.7 mph - N/A   Clear
10:15 PM 21.2 °F 9.5 °F 1.4 °F 42% 30.49 in 10.0 mi NE 11.5 mph - N/A   Clear
10:35 PM 21.2 °F 9.5 °F -0.4 °F 39% 30.48 in 10.0 mi NE 11.5 mph - N/A   Clear
10:55 PM 21.2 °F 9.5 °F -0.4 °F 39% 30.48 in 10.0 mi NNE 11.5 mph 17.3 mph N/A   Clear
11:15 PM 21.2 °F 8.9 °F -0.4 °F 39% 30.48 in 10.0 mi NE 12.7 mph - N/A   Clear
11:35 PM 21.2 °F 10.9 °F -0.4 °F 39% 30.47 in 10.0 mi ENE 9.2 mph 16.1 mph N/A   Clear
11:55 PM 21.2 °F 10.1 °F -0.4 °F 39% 30.47 in 10.0 mi NE 10.4 mph - N/A   Clear